Lake Martin Weather Center

Moon Phase Calendar



Lake Martin Water Level
Online Cameras

 


      

Current Conditions in Dadeville
12/1/2021 3:11:16 PM

67°F
Feels Like 65
Clear
Humidity
32%
Pressure
30.09"
Wind
6.9 mph (SSW)
Dew Point
37°F
UV Index
1/10 (Low)
Visibility
6 mi

Hourly Forecast

Date & Time Wed, Dec 1
3:00 PM
Wed, Dec 1
4:00 PM
Wed, Dec 1
5:00 PM
Wed, Dec 1
6:00 PM
Wed, Dec 1
7:00 PM
Wed, Dec 1
8:00 PM
Wed, Dec 1
9:00 PM
Wed, Dec 1
10:00 PM
Wed, Dec 1
11:00 PM
Thu, Dec 2
12:00 AM
Thu, Dec 2
1:00 AM
Thu, Dec 2
2:00 AM
Thu, Dec 2
3:00 AM
Thu, Dec 2
4:00 AM
Thu, Dec 2
5:00 AM
Thu, Dec 2
6:00 AM
Thu, Dec 2
7:00 AM
Thu, Dec 2
8:00 AM
Thu, Dec 2
9:00 AM
Thu, Dec 2
10:00 AM
Thu, Dec 2
11:00 AM
Thu, Dec 2
12:00 PM
Thu, Dec 2
1:00 PM
Thu, Dec 2
2:00 PM
Thu, Dec 2
3:00 PM
Thu, Dec 2
4:00 PM
Thu, Dec 2
5:00 PM
Thu, Dec 2
6:00 PM
Thu, Dec 2
7:00 PM
Thu, Dec 2
8:00 PM
Thu, Dec 2
9:00 PM
Thu, Dec 2
10:00 PM
Thu, Dec 2
11:00 PM
Fri, Dec 3
12:00 AM
Fri, Dec 3
1:00 AM
Fri, Dec 3
2:00 AM
Fri, Dec 3
3:00 AM
Fri, Dec 3
4:00 AM
Fri, Dec 3
5:00 AM
Fri, Dec 3
6:00 AM
Fri, Dec 3
7:00 AM
Fri, Dec 3
8:00 AM
Fri, Dec 3
9:00 AM
Fri, Dec 3
10:00 AM
Fri, Dec 3
11:00 AM
Fri, Dec 3
12:00 PM
Fri, Dec 3
1:00 PM
Fri, Dec 3
2:00 PM
Condition
Clear

Clouds

Clouds

Clouds

Clear

Clear

Clear

Clear

Clear

Clear

Clear

Clear

Clear

Clear

Clear

Clear

Clear

Clear

Clear

Clear

Clear

Clear

Clear

Clear

Clear

Clear

Clear

Clear

Clear

Clear

Clear

Clear

Clear

Clear

Clear

Clear

Clear

Clear

Clear

Clouds

Clouds

Clouds

Clouds

Clouds

Clouds

Clouds

Clouds

Clouds
Temperature 67°F66°F63°F60°F56°F53°F52°F51°F51°F50°F50°F49°F49°F49°F49°F49°F49°F55°F60°F65°F68°F70°F71°F71°F71°F66°F61°F59°F58°F57°F56°F56°F55°F55°F54°F54°F53°F53°F53°F52°F53°F58°F63°F66°F69°F71°F71°F71°F
Feels Like 65°F64°F61°F58°F54°F51°F50°F50°F49°F49°F48°F48°F48°F47°F47°F47°F48°F54°F59°F64°F67°F69°F71°F71°F70°F65°F60°F58°F57°F57°F56°F55°F55°F54°F54°F53°F53°F52°F52°F52°F52°F57°F62°F66°F68°F70°F70°F70°F
Cloudiness 1%15%24%29%0%0%0%0%0%0%0%0%0%0%0%0%0%1%3%2%2%2%0%0%0%0%0%0%0%0%0%0%0%0%0%0%0%1%8%11%80%63%55%62%69%74%100%100%
Visibility 6 mi6 mi6 mi6 mi6 mi6 mi6 mi6 mi6 mi6 mi6 mi6 mi6 mi6 mi6 mi6 mi6 mi6 mi6 mi6 mi6 mi6 mi6 mi6 mi6 mi6 mi6 mi6 mi6 mi6 mi6 mi6 mi6 mi6 mi6 mi6 mi6 mi6 mi6 mi6 mi6 mi6 mi6 mi6 mi6 mi6 mi6 mi6 mi
Precipitation 0%0%0%0%0%0%0%0%0%0%0%0%0%0%0%0%0%0%0%0%0%0%0%0%0%0%0%0%0%0%0%0%0%0%0%0%0%0%0%0%0%0%0%0%0%0%0%0%
Humidity 32%36%43%50%57%66%69%71%75%80%84%87%91%95%96%96%97%85%74%65%59%54%51%50%53%65%75%80%82%85%87%89%90%92%93%93%93%94%94%94%93%81%70%62%56%53%52%51%
Dew Point 37°F38°F40°F41°F41°F41°F41°F42°F43°F44°F44°F45°F46°F47°F47°F47°F48°F50°F52°F52°F53°F52°F52°F52°F52°F54°F52°F52°F52°F52°F52°F52°F52°F52°F52°F51°F51°F51°F50°F50°F51°F52°F53°F53°F53°F52°F52°F52°F
Pressure 30.09"30.09"30.09"30.12"30.15"30.15"30.15"30.15"30.15"30.15"30.15"30.15"30.15"30.15"30.15"30.15"30.18"30.18"30.18"30.15"30.15"30.12"30.09"30.09"30.09"30.09"30.09"30.12"30.12"30.12"30.12"30.12"30.12"30.12"30.12"30.12"30.12"30.12"30.12"30.15"30.15"30.15"30.15"30.15"30.12"30.09"30.06"30.06"
Wind Speed 5.9 mph3.6 mph4 mph3.8 mph4.7 mph4.5 mph3.9 mph4.4 mph4.4 mph4.7 mph4.2 mph4.2 mph4.1 mph4.2 mph4.2 mph4.3 mph3.9 mph5.2 mph5.9 mph6.5 mph7.1 mph7.5 mph7.9 mph7.7 mph6.6 mph4.6 mph4.5 mph4.4 mph4.2 mph4.2 mph3.8 mph3.9 mph3.9 mph4.2 mph3.8 mph3.4 mph3.2 mph3 mph2.8 mph2.5 mph2.7 mph3.3 mph4.8 mph5.1 mph5 mph6.6 mph6.6 mph6.3 mph
Wind
Direction
230°
SW
253°
WSW
196°
SSW
208°
SSW
201°
SSW
214°
SW
223°
SW
224°
SW
225°
SW
223°
SW
239°
WSW
244°
WSW
247°
WSW
241°
WSW
241°
WSW
253°
WSW
257°
WSW
257°
WSW
257°
WSW
258°
WSW
258°
WSW
257°
WSW
263°
W
269°
W
265°
W
254°
WSW
255°
WSW
262°
W
275°
W
278°
W
279°
W
272°
W
278°
W
278°
W
277°
W
283°
WNW
286°
WNW
293°
WNW
291°
WNW
277°
W
269°
W
251°
WSW
249°
WSW
246°
WSW
244°
WSW
248°
WSW
246°
WSW
250°
WSW

Daily Forecast

Date High Low Precip. Humidity
Today
Dec 1

Clouds
68 °F
47 °F
0%
40%
Thursday
Dec 2

Clear
71 °F
49 °F
0%
59%
Friday
Dec 3

Clouds
71 °F
52 °F
0%
53%
Saturday
Dec 4

Clouds
72 °F
55 °F
0%
55%
Sunday
Dec 5

Clouds
68 °F
53 °F
0%
58%
Monday
Dec 6

Rain
62 °F
40 °F
100%
52%
Tuesday
Dec 7

Clouds
59 °F
35 °F
0%
36%
Wednesday
Dec 8

Rain
72 °F
59 °F
100%
84%
Thursday
Dec 9

Rain
70 °F
58 °F
100%
90%
Friday
Dec 10

Rain
75 °F
67 °F
95%
92%
Saturday
Dec 11

Clouds
77 °F
64 °F
22%
65%
Sunday
Dec 12

Rain
71 °F
61 °F
100%
85%
Monday
Dec 13

Rain
69 °F
61 °F
100%
94%
Tuesday
Dec 14

Rain
61 °F
55 °F
100%
78%
Wednesday
Dec 15

Clouds
65 °F
52 °F
0%
62%
Thursday
Dec 16

Clear
61 °F
46 °F
0%
34%

Temperature 8-14 Day Outlook



Precipitation 8-14 Day Outlook




Quick Links
Lake Martin News
Lake Martin Photos
Lake Martin Videos




About Us
Contact Us
Site Map
Search Site
Advertise With Us
   
www.LakeMartin.com
THE LAKE MARTIN WEBSITE

Copyright 2021, Lakes Online
Privacy    |    Legal